San Jose, Costa Rica

5:11 PM CST on June 22, 2017 (GMT -0600)
Juan Santamaria International

Weather History for MROC - September, 2014

Change the Weather History Date:

Saturday, September 20, 2014

  Actual Average Record
Temperature  
Mean Temperature 72 °F -  
Max Temperature 81 °F 78 °F 86 °F (2015)
Min Temperature 63 °F 64 °F 62 °F (2000)
Cooling Degree Days 7    
Growing Degree Days 22 (Base 50)    
Moisture  
Dew Point 65 °F    
Average Humidity 83    
Maximum Humidity 100    
Minimum Humidity 52    
Precipitation  
Precipitation 0.39 in 0.44 in - ()
Sea Level Pressure  
Sea Level Pressure 29.99 in    
Wind  
Wind Speed 6 mph ()    
Max Wind Speed 13 mph    
Max Gust Speed -    
Visibility 5.7 miles    
Events Fog , Rain , Thunderstorm    
Averages and records for this station are not official NWS values.
T = Trace of Precipitation, MM = Missing Value Source: Averaged Metar Reports

Daily Weather History Graph

Daily Weather History Graph

Search for Another Location

Airport or City:

Trip Planner

Search our weather history database for the weather conditions in past years. The results will help you decide how hot, cold, wet, or windy it might be!

Date:

Astronomy

Sep. 20, 2014 Rise Set
Actual Time 5:26 AM CST 5:34 PM CST
Civil Twilight 5:05 AM CST 5:55 PM CST
Nautical Twilight 4:40 AM CST 6:19 PM CST
Astronomical Twilight 4:16 AM CST 6:43 PM CST
Moon 2:34 AM CST (9/20) 3:11 PM CST (9/20)
Length of Visible Light 12h 49m
Length of Day
12h 07m
Waning Crescent, 11% of the Moon is Illuminated
Sep 20
Waning Crescent
Sep 24
New
Oct 1
First Quarter
Oct 8
Full
Oct 15
Last Quarter

Hourly Weather History & Observations

Time (CST) Temp. Dew Point Humidity Pressure Visibility Wind Dir Wind Speed Gust Speed Precip Events Conditions
12:00 AM 66 °F 64 °F 93% 29.88 in 12 mi East 6.9 mph - -   Clear
12:00 AM 66.2 °F 64.4 °F 94% 30.02 in - East 6.9 mph - N/A   Clear
1:00 AM 66.2 °F 64.4 °F 94% 30.00 in 6.2 mi NE 4.6 mph - N/A Fog Patches of Fog
2:00 AM 66.2 °F 64.4 °F 94% 30.01 in 0.3 mi NW 4.6 mph - N/A Fog Fog
3:00 AM 65 °F 65 °F 100% 29.89 in 1 mi SE 5.8 mph - -   Mist
3:00 AM 66.2 °F 64.4 °F 94% 30.01 in 0.7 mi SE 5.8 mph - N/A   Scattered Clouds
4:00 AM 64.4 °F 64.4 °F 100% 29.99 in - ENE 6.9 mph - N/A   Clear
5:00 AM 64.4 °F 62.6 °F 94% 30.00 in - ENE 8.1 mph - N/A   Clear
6:00 AM 66 °F 61 °F 80% 29.90 in 12 mi ENE 10.4 mph - -   Scattered Clouds
6:00 AM 66.2 °F 60.8 °F 83% 30.00 in - ENE 10.4 mph - N/A   Clear
7:00 AM 71.6 °F 62.6 °F 73% 30.03 in - ENE 5.8 mph - N/A   Clear
8:00 AM 77.0 °F 64.4 °F 65% 30.04 in - ENE 5.8 mph - N/A   Clear
9:00 AM 76 °F 65 °F 62% 29.91 in 12 mi WSW 8.1 mph - -   Scattered Clouds
9:00 AM 75.2 °F 66.2 °F 73% 30.04 in - WSW 8.1 mph - N/A   Clear
10:00 AM 78.8 °F 66.2 °F 65% 30.05 in 6.2 mi WSW 9.2 mph - N/A   Scattered Clouds
11:00 AM 78.8 °F 64.4 °F 61% 30.05 in 6.2 mi WSW 12.7 mph - N/A   Scattered Clouds
12:00 PM 79 °F 64 °F 52% 29.89 in 12 mi WSW 10.4 mph - -   Mostly Cloudy
12:00 PM 78.8 °F 64.4 °F 61% 30.03 in 6.2 mi WSW 10.4 mph - N/A   Scattered Clouds
1:00 PM 78.8 °F 66.2 °F 65% 30.00 in 6.2 mi WSW 8.1 mph - N/A   Mostly Cloudy
2:00 PM 78.8 °F 68.0 °F 69% 29.97 in 5.0 mi WSW 11.5 mph - N/A Rain Rain
2:40 PM 71.6 °F 62.6 °F 73% 29.97 in 3.1 mi North 11.5 mph - N/A Rain , Thunderstorm Thunderstorms and Rain
3:00 PM 71 °F 63 °F 68% 29.87 in 3 mi North 8.1 mph - - Rain Light Rain
3:00 PM 71.6 °F 62.6 °F 73% 29.98 in 3.1 mi North 8.1 mph - N/A Rain , Thunderstorm Thunderstorms and Rain
4:00 PM 68.0 °F 66.2 °F 94% - 6.2 mi North 6.9 mph - N/A Rain Rain
5:00 PM 68.0 °F 66.2 °F 94% 2.99 in 3.1 mi Calm Calm - N/A Rain Rain
6:00 PM 67 °F 66 °F 94% 29.93 in 3 mi WNW 2.3 mph - - Rain Rain
6:00 PM 66.2 °F 66.2 °F 100% 3.00 in 3.1 mi WNW 2.3 mph - N/A Rain Rain
7:00 PM 66.2 °F 64.4 °F 94% 30.04 in 5.0 mi NW 2.3 mph - N/A Fog , Rain Light Rain
8:00 PM 68.0 °F 66.2 °F 94% 30.04 in 6.2 mi South 4.6 mph - N/A Fog Patches of Fog
9:00 PM 67 °F 66 °F 95% 29.92 in 9 mi NNE 2.3 mph - -   Scattered Clouds
9:00 PM 66.2 °F 66.2 °F 100% 30.06 in 6.2 mi NNE 2.3 mph - N/A   Scattered Clouds
10:00 PM 66.2 °F 64.4 °F 94% 30.05 in 6.2 mi NE 2.3 mph - N/A   Scattered Clouds
11:00 PM 66.2 °F 64.4 °F 94% 30.02 in - East 3.5 mph - N/A   Clear